TimeEST,TemperatureF,Dew PointF,Humidity,Sea Level PressureIn,VisibilityMPH,Wind Direction,Wind SpeedMPH,Gust SpeedMPH,PrecipitationIn,Events,Conditions,WindDirDegrees,DateUTC
12:18 AM,44.6,30.2,57,30.24,10.0,NE,11.5,-,N/A,,Overcast,50,2012-12-13 05:18:00
12:53 AM,44.1,30.9,60,30.26,10.0,ENE,11.5,-,N/A,,Overcast,60,2012-12-13 05:53:00
1:53 AM,44.1,30.0,58,30.25,10.0,NE,15.0,-,N/A,,Overcast,40,2012-12-13 06:53:00
2:18 AM,44.6,30.2,57,30.26,10.0,NNE,12.7,-,N/A,,Overcast,20,2012-12-13 07:18:00
2:44 AM,44.6,28.4,53,30.26,10.0,NE,10.4,-,N/A,,Overcast,40,2012-12-13 07:44:00
2:53 AM,44.1,28.9,55,30.26,10.0,NNE,11.5,-,N/A,,Overcast,30,2012-12-13 07:53:00
3:53 AM,44.1,28.0,53,30.28,10.0,NNE,8.1,-,N/A,,Overcast,30,2012-12-13 08:53:00
4:53 AM,44.1,28.0,53,30.27,10.0,NNE,12.7,-,N/A,,Overcast,20,2012-12-13 09:53:00
5:14 AM,44.6,28.4,53,30.27,10.0,NNE,10.4,19.6,N/A,,Overcast,30,2012-12-13 10:14:00
5:53 AM,44.1,28.9,55,30.29,10.0,NNE,8.1,-,N/A,,Overcast,20,2012-12-13 10:53:00
6:53 AM,44.1,27.0,51,30.32,10.0,NNE,11.5,-,N/A,,Overcast,20,2012-12-13 11:53:00
7:53 AM,43.0,27.0,53,30.33,10.0,NNE,11.5,-,N/A,,Mostly Cloudy,30,2012-12-13 12:53:00
8:09 AM,42.8,26.6,53,30.33,10.0,NNE,10.4,-,N/A,,Overcast,30,2012-12-13 13:09:00
8:53 AM,44.1,27.0,51,30.34,10.0,NNE,11.5,-,N/A,,Overcast,30,2012-12-13 13:53:00
9:53 AM,45.0,24.1,44,30.36,10.0,NNE,16.1,-,N/A,,Mostly Cloudy,20,2012-12-13 14:53:00
10:53 AM,48.0,27.0,44,30.37,10.0,NE,9.2,-,N/A,,Scattered Clouds,50,2012-12-13 15:53:00
11:53 AM,50.0,27.0,41,30.35,10.0,NNE,8.1,-,N/A,,Clear,20,2012-12-13 16:53:00
12:53 PM,52.0,27.0,38,30.32,10.0,ENE,9.2,16.1,N/A,,Clear,70,2012-12-13 17:53:00
1:53 PM,52.0,21.9,31,30.31,10.0,NE,9.2,17.3,N/A,,Clear,50,2012-12-13 18:53:00
2:53 PM,54.0,21.0,28,30.30,10.0,ENE,4.6,-,N/A,,Clear,60,2012-12-13 19:53:00
3:53 PM,54.0,21.0,28,30.30,10.0,ENE,6.9,-,N/A,,Clear,60,2012-12-13 20:53:00
4:53 PM,50.0,21.9,33,30.31,10.0,NE,5.8,-,N/A,,Clear,50,2012-12-13 21:53:00
7:53 PM,42.8,24.8,49,30.31,10.0,Calm,Calm,-,N/A,,Clear,0,2012-12-14 00:53:00
8:53 PM,41.0,24.1,51,30.34,10.0,North,4.6,-,N/A,,Clear,350,2012-12-14 01:53:00
9:53 PM,42.1,24.1,49,30.34,10.0,North,3.5,-,N/A,,Clear,10,2012-12-14 02:53:00
10:53 PM,37.0,24.1,59,30.35,10.0,Calm,Calm,-,N/A,,Clear,0,2012-12-14 03:53:00
11:53 PM,36.0,24.1,62,30.35,10.0,Calm,Calm,-,N/A,,Clear,0,2012-12-14 04:53:00